Simultaneous Nadir Overpasses (SNOs) Predictions

Prediction of SNOs between METOP-A and NOAA-19 Satellite Orbit:

Table of predicted SNOs for the next 14.0 days since TLE Epoch: 2/12/2015
Index Date (METOP-A) Time (METOP-A) Lat,Lon (METOP-A) SZA (METOP-A ) Date (NOAA-19) Time (NOAA-19) Lat,Lon (NOAA-19) SZA (NOAA-19 ) Distance(km) Time Diff (sec)
1 02/21/2015 13:34:53 -74.81, 152.97 94.63 02/21/2015 13:33:39 -74.80, 152.36 94.61 17.90 74
2 02/21/2015 14:25:36 74.66, -40.09 85.23 02/21/2015 14:24:43 74.66, -40.02 85.23 2.18 53
3 02/21/2015 15:16:18 -74.64, 127.19 94.81 02/21/2015 15:15:39 -74.66, 127.24 94.79 2.42 39
4 02/21/2015 16:06:58 74.64, -65.48 85.18 02/21/2015 16:06:46 74.66, -65.54 85.20 2.50 12
5 02/21/2015 16:57:40 -74.62, 101.80 94.85 02/21/2015 16:57:41 -74.61, 101.86 94.86 2.23 1
6
